Regional Weather Roundup
Issued by NWS

Home | Current Version | Previous Version | Graphics & Text | Print | Product List | Glossary Off
Versions: 1 2 3 4 5 6 7 8 9 10 11 12 13 14 15 16 17 18 19 20 21 22 23 24 25 26 27 28 29 30 31 32 33 34 35 36 37 38 39 40 41 42 43 44 45 46 47 48 49 50

000
ASUS43 KMKX 231100
RWRWI

WISCONSIN REGIONAL WEATHER ROUNDUP
NATIONAL WEATHER SERVICE MILWAUKEE/SULLIVAN WI
600 AM CDT MON OCT 23 2017

NOTE: "FAIR" INDICATES FEW OR NO CLOUDS BELOW 12,000 FEET WITH NO
SIGNIFICANT WEATHER AND/OR OBSTRUCTIONS TO VISIBILITY.

WIZ001-002-006>008-014>016-023>028-231200-
NORTHWEST WISCONSIN

CITY           SKY/WX    TMP DP  RH WIND       PRES   REMARKS
SUPERIOR ARPT  CLOUDY    54  35  49 SW5       29.71F
ASHLAND        CLOUDY    52  38  58 S10       29.76F
HAYWARD        CLOUDY    50  38  63 S7        29.78F
SIREN          PTCLDY    53  34  48 S8        29.76F
CUMBERLAND     CLOUDY    45  36  70 S6        29.79F
RICE LAKE      PTCLDY    46  39  74 SE7       29.82F
CHETEK         MOCLDY    45  41  84 S10       29.82F
LADYSMITH      MOCLDY    46  40  82 S5        29.85F
EAU CLAIRE     NOT AVBL
MENOMONIE      PTCLDY    45  41  86 E6        29.82F
NEW RICHMOND   NOT AVBL
OSCEOLA        CLOUDY    52  37  56 S7        29.80F
$$

WIZ003>005-009-010-017-018-231200-
NORTH CENTRAL WISCONSIN

CITY           SKY/WX    TMP DP  RH WIND       PRES   REMARKS
MANITOWISH WTR CLOUDY    42  42  99 S5        29.84F
ARBOR VITAE    PTCLDY    43  41  92 S5        29.86F
WOODRUFF       PTCLDY    43  41  92 S5        29.86F
RHINELANDER    CLOUDY    43  40  89 S6        29.89F
EAGLE RIVER    NOT AVBL
LAND O LAKES   CLOUDY    39  39 100 S3        29.89F
PHILLIPS       CLOUDY    44  41  90 S8        29.84F
TOMAHAWK       CLOUDY    38  37  97 CALM      29.90F FOG
MEDFORD        CLOUDY    40  39  95 S5        29.88S
MERRILL        CLOUDY    33  33 100 CALM      29.91S
$$

WIZ029-030-035-036-043>047-231200-
CENTRAL WISCONSIN

CITY           SKY/WX    TMP DP  RH WIND       PRES   REMARKS
WAUSAU         MOCLDY    38  38 100 E3        29.89F
MOSINEE        MOCLDY    36  36 100 SE3       29.91S FOG
MARSHFIELD     CLOUDY    40  38  93 S5        29.88F
STEVENS POINT  FOG       36  36 100 CALM      29.93S VSB 1/2
WAUPACA        FOG       40  39  97 CALM      29.94S VSB 1/2
WAUTOMA        FOG      N/A N/A N/A CALM      29.93F VSB 1/2
WISC RAPIDS    CLOUDY    40  39  97 S3        29.91F
CAMP DOUGLAS   NOT AVBL
$$

WIZ011>013-019>022-031-037>040-048>050-231200-
NORTHEAST WISCONSIN

CITY           SKY/WX    TMP DP  RH WIND       PRES   REMARKS
ANTIGO         CLOUDY    35  35 100 CALM      29.91F
SHAWANO        FOG       42  40  95 CALM      29.95R VSB 1/4
OCONTO         CLOUDY    42  42 100 CALM      29.94S VSB 1/4
STURGEON BAY   FOG       42  42 100 CALM      29.94F VSB 1/2
GREEN BAY      FOG       43  43 100 CALM      29.94F VSB 1/4
MANITOWOC      FOG       43  43 100 CALM      29.95F VSB 1/2
APPLETON       FOG       43  43 100 CALM      29.92F VSB 1/16
CLINTONVILLE   NOT AVBL
OSHKOSH        FOG       43  42  97 CALM      29.92F VSB 1/2
$$

WIZ032>034-041-042-053>061-231200-
SOUTHWEST WISCONSIN

CITY           SKY/WX    TMP DP  RH WIND       PRES   REMARKS
LA CROSSE      CLOUDY    49  45  86 S10       29.88F
SPARTA         CLOUDY    33  33  98 CALM      29.90F
VIROQUA        CLOUDY    44  42  91 S6        29.90F
BOSCOBEL       FOG       41  40  96 CALM      29.93F VSB 1/4
PRAIRIE DU CHI CLOUDY    40  39  97 CALM      29.91F
PLATTEVILLE    CLOUDY    41  41 100 SE5       29.92F
$$

WIZ056-057-062-063-064-067-068-231200-
SOUTH CENTRAL WISCONSIN

CITY           SKY/WX    TMP DP  RH WIND       PRES   REMARKS
REEDSBURG      CLOUDY    39  39 100 CALM      29.91F
BARABOO/DELLS  CLOUDY    41  40  99 CALM      29.92F
LONE ROCK      FOG       39  39 100 CALM      29.93S VSB 1/2
MINERAL POINT  CLOUDY    41  41 100 CALM      29.92F FOG
MADISON        CLOUDY    42  42 100 CALM      29.93R FOG
MIDDLETON      CLOUDY    42  42 100 CALM      29.93F
WATERTOWN      CLOUDY    43  43 100 CALM      29.94F FOG
MONROE         CLOUDY    45  43  93 CALM      29.93R
JANESVILLE     MOCLDY    46  46 100 CALM      29.94R
$$

WIZ051-052-058>065-066-070>072-231200-
SOUTHEAST WISCONSIN

CITY           SKY/WX    TMP DP  RH WIND       PRES   REMARKS
MILWAUKEE      LGT RAIN  51  50  96 N5        29.93F
WAUKESHA       MOCLDY    46  45  93 CALM      29.96R
MILWAUKEE/TIMM LGT RAIN  48  45  87 CALM      29.96S
RACINE         LGT RAIN  50  49  96 NW6       29.95F
BURLINGTON     LGT RAIN  48  48 100 CALM      29.94F
KENOSHA        LGT RAIN  50  48  93 N5        29.94F
FOND DU LAC    CLOUDY    44  42  93 SE3       29.93F FOG
SHEBOYGAN      CLOUDY    46  46 100 CALM      29.95F FOG
WEST BEND      CLOUDY    45  45 100 CALM      29.96S
JUNEAU         FOG       42  42  99 CALM      29.94F VSB<1/4
$$

LSZ147-162-231200-
LAKE SUPERIOR

STATION/POSITION TIME  TEMP    WIND        PRES    WAVE
                       AIR SEA DIR/SP/G            HT/PER
                 (UTC) (F)     (DEG/KT/KT) (MB)    (FT/S)
W MID LAKE BUOY  0950   53 51              1008.5F   3/ 5
DEVILS ISLAND    1000   53     170/ 10/ 14 1007.7F
SAXON HARBOR     1040   54     190/  9/ 14 1007.5F
$$

LMZ867-665-643>646-231200-
LAKE MICHIGAN

STATION/POSITION TIME  TEMP    WIND        PRES    WAVE
                       AIR SEA DIR/SP/G            HT/PER
                 (UTC) (F)     (DEG/KT/KT) (MB)    (FT/S)
S GREEN BAY BUOY 1030   47 58  240/  4/  4 1014.0S
N MID LAKE BUOY  0950   52 55  260/  6/ 10 1014.4F   1/ 6
NORTHPORT PIER   1040   44        CALM     1013.9S
KEWAUNEE LAKESHO 1030   44      CALM  /  2 1013.4F
SHEBOYGAN LAKESH 1000   50      CALM  /  1 1014.6R
PORT WASHINGTON  1040   50      CALM  /  1 1015.2F
MILWAUKEE LAKESH 1030   50      30/  4/  4   N/A
S MID LAKE BUOY  0950   54 60   10/ 16/ 17 1013.4F   3/ 4
KENOSHA   LAKESH 1000   50     340/  5/  8 1014.6
$$

TC  - TEMPERATURE IN CELSIUS
VSB - VISIBILITY IN STATUTE MILES
WCI - WIND CHILL INDEX
HX  - HEAT INDEX





USA.gov is the U.S. government's official web portal to all federal, state and local government web resources and services.